Regional Weather Roundup
Issued by NWS Charleston, SC

Current Version | Previous Version | Graphics & Text | Print | Product List | Glossary On
Versions: 1 2 3 4 5 6 7 8 9 10 11 12 13 14 15 16 17 18 19 20 21 22 23 24 25 26 27 28 29 30 31 32 33 34 35 36 37 38 39 40 41 42 43 44 45 46 47 48 49 50
345 ASUS42 KCHS 201012 RWRCHS Regional Weather Roundup National Weather Service Charleston SC 500 AM EST SAT JAN 20 2018 NOTE: "fair" indicates few or no clouds below 12,000 feet with no significant weather and/or obstructions to visibility. Not all stations are quality controlled. Use data with caution, especially dewpoint observations. SCZ027-030-031-034>040-042>050-201100- ...Southeast South Carolina... CITY SKY/WX TMP DP RH WIND PRES REMARKS N Charleston FAIR 34 25 69 SW3 30.24S Waterfront Prk NOT AVBL Mount Pleasant FAIR 32 30 93 CALM 30.24S Johns Island FAIR 37 25 60 CALM 30.25S Pinopolis N/A 37 25 60 SW6 30.16S WCI 33 Moncks Corner FAIR 27 25 93 CALM 30.24S Summerville FAIR 28 27 93 CALM 30.25S Beaufort MCAS FAIR 32 26 78 CALM 30.26S Beaufort Arpt FAIR 34 28 80 SW5 30.26R WCI 30 Hilton Head Is FAIR 36 27 69 VRB3 30.27S Walterboro FAIR 28 25 86 CALM 30.26S Allendale FAIR 30 25 80 CALM 30.24S ...Southern Midlands and Pee Dee... CITY SKY/WX TMP DP RH WIND PRES REMARKS Georgetown FAIR 30 27 86 W6 30.24S WCI 24 Kingstree FAIR 27 21 80 CALM 30.22S Orangeburg FAIR 27 20 75 S3 30.22S Barnwell N/A 28 23 80 CALM 30.23S Aiken FAIR 30 18 59 SW7 30.25S WCI 23 Manning FAIR 28 21 74 MISG 30.22F Columbia FAIR 26 20 77 W6 30.21S WCI 19 Sumter FAIR 37 14 38 CALM 30.18S Florence FAIR 29 18 63 SW5 30.20S WCI 24 Myrtle Beach FAIR 37 23 56 SW6 30.23S WCI 32 N Myrtle Beach FAIR 35 25 66 SW3 30.21R $$ GAZ063-065-086>088-099>101-113>116-118-119-134>141-150-201100- ...Southeast Georgia... CITY SKY/WX TMP DP RH WIND PRES REMARKS Savannah Arpt FAIR 31 25 78 W3 30.28R Hunter AAF FAIR 32 25 74 W6 30.25R WCI 26 Fort Stewart FAIR 31 26 83 CALM 30.26R Statesboro FAIR 29 23 79 CALM 30.26S Sylvania FAIR 31 27 83 CALM 30.26S Claxton FAIR 29 27 92 CALM 30.27S ...CSRA, Central and far Southeast Georgia... CITY SKY/WX TMP DP RH WIND PRES REMARKS Thomson FAIR 24 20 84 CALM 30.28F Augusta-Bush FAIR 24 19 81 CALM 30.24S Augusta-Daniel FAIR 43 10 26 W5 30.23F Swainsboro FAIR 30 25 80 CALM 30.27S Vidalia FAIR 32 28 86 CALM 30.27S Eastman FAIR 28 20 72 CALM 30.30S Hazlehurst FAIR 35 23 61 CALM 30.27S Alma FAIR 30 27 88 CALM 30.27F Waycross FAIR 31 27 87 CALM 30.28S Jesup NOT AVBL Baxley FAIR 30 28 93 CALM 30.27S Brunswick FAIR 32 32 100 CALM 30.29S Saint Simons FAIR 36 34 92 CALM 30.28S $$ SCZ027-028-034-036>038-045-046-048>050-GAZ119-141-201100- ...Lake and Supplemental Coastal Observations... STATION/POSITION TIME TEMP WIND PRES WAVE SWELL AIR SEA DIR/SP/G HT/PER HT/PER/DIR (UTC) (F) (DEG/KT/KT) (MB) (FT/S) (FT/S/D) Winyah Bay NOT AVBL Lake Murray 0920 44 260/ 9/ 12 1021.7 ACE Basin NERRS 0845 32 CALM 1024.0 Fort Pulaski 0948 40 45 230/ 4/ 5 1025.1R Sapelo Island 0900 38 CALM 1025.0 $$ ANZ835-935-AMZ111-154-330-350-352-354-370-450-454-472-201100- ...C-MAN and Buoy Observations... STATION/POSITION TIME TEMP WIND PRES WAVE SWELL AIR SEA DIR/SP/G HT/PER HT/PER/DIR (UTC) (F) (DEG/KT/KT) (MB) (FT/S) (FT/S/D) Buoy 41004 0950 58 69 280/ 16/ 21 1024.0R 3/ 5 2/150/11 Buoy 41008 0950 48 51 270/ 8/ 8 1025.1S 2/11 2/ 60/11 Folly Beach CMAN 1000 41 250/ 6/ 8 1024.7R Capers Nearshore 0908 42 270/ 10/ 14 1023.9R Fripp Nearshore 0908 42 44 270/ 6/ 8 1024.1R STATION/POSITION TIME TEMP WIND PRES WAVE SWELL AIR SEA DIR/SP/G HT/PER HT/PER/DIR (UTC) (F) (DEG/KT/KT) (MB) (FT/S) (FT/S/D) 5E St. Marys GA 0930 48 N/A 2/11 2/ 90/11 Frying Pan Buoy 0950 55 61 270/ 16/ 17 1023.1S 4/11 2/100/11 Buoy 41025 1000 58 71 260/ 19/ 23 1021.4 Cape Lookout NC 0900 240/ 8/ 10 1021.9F Buoy 41002 0950 64 70 250/ 12/ 16 1023.5F 4/ 8 3/ 40/ 8 Buoy 41010 NOT AVBL St Augustine FL 1000 44 50 250/ 8/ 8 1025.1F $$

USA.gov is the U.S. government's official web portal to all federal, state and local government web resources and services.